This demonstration page uses our WeatherBlox Daily Observations layout. Learn more.

39.92423, -83.80882

Hourly Observations for December 14, 2018

Temp ( °F °C ) Dew Point ( °F °C ) Humidity (%) Winds ( mph kmh ) Pressure ( in mb ) Visibility ( mi km ) Precip ( " mm )
12:56 am 00:56 Clear 42 5.6 36 2.2 79 79 SE 9 15 30.15 1021 10 16.0934 0 0
1:56 am 01:56 Clear 42 5.6 36 2.2 79 79 SE 7 11 30.16 1022 10 16.0934 0 0
2:56 am 02:56 Clear 39 3.9 36 2.2 89 89 ESE 7 11 30.17 1022 10 16.0934 0 0
3:56 am 03:56 Mostly Cloudy 40 4.4 36 2.2 86 86 SE 7 11 30.16 1022 10 16.0934 0 0
4:56 am 04:56 Mostly Clear 40 4.4 36 2.2 86 86 ESE 7 11 30.15 1021 10 16.0934 0 0
5:56 am 05:56 Clear 39 3.9 36 2.2 89 89 SE 6 9 30.17 1022 10 16.0934 0 0
6:56 am 06:56 Cloudy 39 3.9 36 2.2 89 89 ESE 5 7 30.18 1022 10 16.0934 0 0
7:56 am 07:56 Cloudy 38 3.3 35 1.7 89 89 ESE 5 7 30.19 1023 10 16.0934 0 0
8:56 am 08:56 Cloudy 40 4.4 37 2.8 89 89 E 6 9 30.2 1023 10 16.0934 0 0
9:56 am 09:56 Cloudy 45 7.2 38 3.3 77 77 ESE 5 7 30.21 1023 10 16.0934 0 0
10:56 am 10:56 Cloudy 48 8.9 38 3.3 68 68 ENE 6 9 30.19 1022 10 16.0934 0 0
11:56 am 11:56 Cloudy 53 11.7 39 3.9 59 59 E 8 13 30.16 1022 10 16.0934 0 0
12:56 pm 12:56 Cloudy 54 12.2 40 4.4 59 59 E 8 13 30.15 1021 10 16.0934 0 0
1:56 pm 13:56 Cloudy 52 11.1 40 4.4 64 64 ENE 8 13 30.13 1020 10 16.0934 0 0
2:56 pm 14:56 Mostly Sunny 51 10.6 40 4.4 66 66 ENE 8 13 30.12 1020 10 16.0934 0 0
3:56 pm 15:56 Sunny 49 9.4 40 4.4 71 71 E 5 7 30.14 1021 10 16.0934 0 0
4:56 pm 16:56 Partly Cloudy 47 8.3 39 3.9 74 74 E 7 11 30.13 1020 10 16.0934 0 0
5:56 pm 17:56 Clear 45 7.2 38 3.3 77 77 E 6 9 30.13 1020 10 16.0934 0 0
6:56 pm 18:56 Clear 48 8.9 41 5 77 77 ESE 12 19 30.11 1020 10 16.0934 0 0
7:56 pm 19:56 Partly Cloudy 47 8.3 41 5 80 80 E 6 9 30.11 1020 10 16.0934 0 0
8:56 pm 20:56 Mostly Clear 46 7.8 42 5.6 86 86 NE 8 13 30.11 1020 10 16.0934 0 0
9:56 pm 21:56 Clear 45 7.2 42 5.6 90 90 NE 9 15 30.09 1019 10 16.0934 0 0
10:56 pm 22:56 Clear 46 7.8 41 5 83 83 NE 13 20 30.07 1018 10 16.0934 0 0
11:56 pm 23:56 Cloudy 45 7.2 40 4.4 83 83 NE 14 22 30.05 1018 10 16.0934 0 0

Powered by AerisWeather